Location: ???????
(48.4633°N, 34.1328°E)
Time: 06:09:09
(UTC+00:00)

Daily predictions for brighter satellites

Satellite Brightness Start Highest point End
(mag) Time Altitude Azimuth Time Altitude Azimuth Time Altitude Azimuth
Cosmos 1867 3.6 17:22:37 10° SSW 17:27:59 65° ESE 17:33:24 10° NE
MOS 1 Rocket 3.8 17:23:09 10° N 17:28:37 82° WNW 17:33:50 10° SSW
GP-B 4.4 17:25:47 10° NNE 17:29:15 22° E 17:32:43 10° SE
Cosmos 1954 Rocket 4.3 17:28:09 10° S 17:33:14 48° ESE 17:38:21 10° NNE
DMSP B5D2-2 4.2 17:28:12 10° NNE 17:33:24 59° E 17:38:34 10° S
Cosmos 1821 Rocket 4.0 17:27:29 10° S 17:33:38 78° E 17:39:56 10° NNE
Cosmos 1666 Rocket 3.7 17:29:28 10° S 17:33:40 53° E 17:37:55 10° NNE
IRIDIUM 103 4.4 17:31:18 10° S 17:36:32 88° E 17:41:47 10° N
Ariane Rocket 3.5 17:33:18 10° S 17:38:19 65° WSW 17:43:23 10° NNW
Cosmos 405 Rocket 4.0 17:40:44 10° SE 17:43:38 22° E 17:46:33 10° NE
Cosmos 407 Rocket 3.9 17:38:21 10° SSW 17:43:38 73° WNW 17:48:55 10° NNE
Cosmos 1805 Rocket 4.3 17:39:55 10° SSW 17:44:19 61° WNW 17:48:45 10° N
Cosmos 1812 3.9 17:41:21 10° NNW 17:45:03 45° W 17:48:43 10° SSW
Cosmos 2333 Rocket 4.4 17:42:33 10° N 17:45:27 14° NNE 17:48:21 10° ENE
FREGAT/IRIS 3.8 17:43:52 10° S 17:46:20 37° W 17:48:50 10° NNW
BREEZE-M (TANK) 4.4 17:42:59 10° WSW 17:47:22 89° N 18:07:12 10° E
Cosmos 1190 Rocket 4.2 17:42:28 10° SSW 17:47:45 81° WNW 17:53:07 10° NNE
Cosmos 1763 Rocket 4.1 17:43:20 10° NNW 17:48:24 42° ENE 17:53:10 11° SE
Cosmos 1140 Rocket 3.7 17:44:36 10° SSW 17:49:52 81° WNW 17:55:09 10° NNE
SJ-6B 3.7 17:46:55 10° S 17:50:50 52° W 17:54:41 10° NNW
Cosmos 1437 Rocket 4.1 17:51:00 10° NNE 17:54:04 23° ENE 17:56:31 13° ESE
Resurs 1-3 3.6 17:49:44 10° SSE 17:54:07 86° ENE 17:58:32 10° NNW
deb Kosmos-1763 4.4 17:51:40 10° SSW 17:55:16 71° WNW 17:58:57 10° NNE
Cosmos 2123 Rocket 4.0 17:51:09 10° N 17:57:25 81° E 18:03:42 10° SSE
FALCON 9 DEB 4.0 17:54:17 10° W 17:57:43 52° NNW 18:01:09 10° ENE
H-2A R/B 4.4 17:54:43 10° NE 17:58:17 28° E 18:01:50 10° SSE
Cosmos 2084 Rocket 4.1 17:55:10 10° S 17:58:54 32° ESE 18:02:44 10° ENE
Cosmos 1535 Rocket 4.4 17:53:19 10° S 17:59:23 71° E 18:05:29 10° NNE
Cosmos 1633 Rocket 3.0 17:56:09 10° S 18:00:34 84° E 18:05:00 10° N
OBJECT-B 1.1 17:57:37 10° S 18:00:52 68° WSW 18:04:10 10° NNW
SPOT 5 4.4 17:59:11 11° E 18:01:54 17° ENE 18:04:50 10° NNE
Cosmos 921 Rocket 2.9 18:00:02 10° NNW 18:04:15 86° ENE 18:08:15 11° SSE
MetOp-B 4.4 17:59:31 11° SE 18:04:33 54° ENE 18:09:46 10° N
Meteor 1-27 Rocket 4.5 17:59:09 10° NNW 18:04:59 58° W 18:10:46 10° S
Cosmos 1184 Rocket 2.7 18:02:18 10° S 18:05:35 79° E 18:08:53 10° NNE
Cosmos 1605 Rocket 4.1 18:01:56 10° SSE 18:07:51 56° E 18:13:47 10° NNE
NOSS 3-2 (A) 3.3 18:03:19 10° SW 18:09:02 80° SE 18:15:38 10° NE
USA 267 3.9 18:04:52 10° ENE 18:10:29 30° SE 18:16:03 10° S
CZ-2C R/B 3.1 18:07:15 10° N 18:12:24 64° WNW 18:17:34 10° SSW
Cosmos 2219 Rocket 4.2 18:12:38 10° N 18:16:21 17° NE 18:20:03 10° ENE
Meteor 2-4 Rocket 4.5 18:11:55 10° N 18:17:02 35° ENE 18:20:29 18° SE
Okean 1 3.5 18:13:40 10° N 18:17:40 53° ENE 18:20:28 18° SSE
NOSS 3-2 (C) 3.4 18:14:03 10° SSW 18:19:40 62° ESE 18:26:06 10° NE
SL-16 R/B 2.3 18:14:42 10° NNW 18:20:23 66° ENE 18:24:36 18° SE
Cosmos 540 Rocket 4.1 18:16:38 10° NNW 18:21:32 41° ENE 18:24:50 19° ESE
SL-4 R/B 2.5 18:24:15 10° W 18:28:10 53° N 18:31:48 10° ENE
Cosmos 2242 Rocket 3.5 18:24:03 10° N 18:28:29 72° E 18:31:38 19° SSE
Cosmos 2082 Rocket 3.2 18:24:33 10° SW 18:30:04 50° NW 18:35:36 10° NNE
Cosmos 1470 Rocket 3.6 18:25:55 10° S 18:30:19 85° W 18:34:43 10° N
SL-27 R/B 2.6 18:31:00 24° SSE 18:32:34 42° ESE 18:35:43 10° NE
Meteor 1-14 Rocket 4.4 18:30:57 10° S 18:36:42 59° E 18:42:34 10° NNE
Cosmos 2322 Rocket 2.2 18:32:04 10° NNW 18:37:47 73° ENE 18:41:25 23° SE
ERS-1 Rocket 3.5 18:36:14 23° SE 18:38:59 44° ENE 18:43:46 10° N
Meteor 1-25 Rocket 4.4 18:38:11 10° SSW 18:43:46 77° WNW 18:49:27 10° N
Cosmos 1850 Rocket 3.9 18:38:43 10° SSW 18:44:00 77° ESE 18:49:16 10° NNE
ATLAS 3B R/B 3.0 18:39:06 10° S 18:45:04 37° ESE 18:51:04 10° NE
SPOT 1/Viking Rocket 3.5 18:42:54 22° SSE 18:46:16 74° ENE 18:51:31 10° N
Cosmos 2360 Rocket 2.6 18:41:26 10° NNW 18:46:59 50° NE 18:50:02 25° ESE
Cosmos 841 Rocket 3.6 18:41:47 10° NNW 18:47:01 66° ENE 18:49:50 27° SE
USA 234 3.6 18:41:40 15° E 18:47:07 61° NNE 18:53:33 10° NW
Meteor 1-18 Rocket 4.2 18:41:32 10° NNW 18:47:08 82° W 18:51:22 18° S
USA 32 4.4 18:42:59 10° SSW 18:48:11 67° W 18:53:25 10° N
Cosmos 2237 4.4 18:45:17 10° NNW 18:50:57 58° ENE 18:53:58 27° SE
Terra 2.6 18:49:02 26° ESE 18:50:58 36° ENE 18:55:20 10° N
Cosmos 1500 3.6 18:50:44 36° ESE 18:51:26 40° E 18:54:59 10° NNE
Cosmos 1238 Rocket 3.2 18:51:42 13° SSW 18:54:11 43° WNW 18:57:08 10° N
Okean 3 4.2 18:50:22 10° N 18:54:24 38° ENE 18:55:36 31° ESE
Cosmos 1980 Rocket 4.1 18:50:57 10° NW 18:55:20 24° WSW 18:59:41 10° SSW
IGS 5A 3.6 18:53:12 24° S 18:55:36 71° WSW 18:59:46 10° NNW
USA 276 2.5 18:54:31 10° W 18:57:35 46° SSW 18:57:49 45° S
Cosmos 1153 Rocket 4.4 18:52:09 10° S 18:58:15 85° E 19:04:29 10° N
X-37B 2.1 18:55:46 10° WSW 18:58:07 24° SSW 18:58:07 24° SSW
Iridium 4 Rocket 3.7 18:58:57 32° ESE 18:59:40 35° E 19:03:27 10° NNE
Cosmos 44 3.5 18:54:47 10° NW 18:59:42 70° SW 19:02:11 30° SSE
Lacrosse 5 2.8 18:55:38 10° WNW 19:00:18 38° SW 19:02:39 24° S
Resurs 01 Rocket 3.2 18:57:42 10° SSW 19:01:38 31° W 19:05:36 10° NNW
Cosmos 1666 4.0 19:02:45 24° ENE 19:02:45 24° ENE 19:05:25 10° NE
CARTOSAT-1 3.5 19:03:23 37° SSE 19:04:59 72° ENE 19:09:20 10° N
GP-B 4.3 19:02:34 10° NNW 19:06:46 42° W 19:10:56 10° SSW
Cosmos 2061 Rocket 4.4 19:05:49 30° SE 19:08:13 42° E 19:14:01 10° NNE
USA 238 DEB 4.4 19:03:14 10° WSW 19:09:47 56° NW 19:16:39 10° NE
USA 238 4.4 19:03:20 10° WSW 19:09:53 56° NW 19:16:45 10° NE
COSMOS 2428 3.9 19:07:56 10° NNW 19:13:03 32° NE 19:15:48 21° E
CENTAUR R/B 2.8 19:07:02 10° SW 19:13:05 74° NW 19:20:21 10° NE
Cosmos 1802 Rocket 4.2 19:10:10 29° SSE 19:13:18 56° E 19:19:27 10° NNE
CZ-4B DEB 4.3 19:13:12 63° S 19:13:41 83° WSW 19:17:02 10° NNW
Spot 2 Rocket 4.0 19:11:06 21° S 19:14:20 55° W 19:19:21 10° NNW
Cosmos 1814 Rocket 3.9 19:09:19 10° NNW 19:14:34 88° ENE 19:16:43 37° SSE
Cosmos 2237 Rocket 4.2 19:13:28 10° N 19:17:15 18° NE 19:20:58 10° E
Cosmos 1869 Rocket 3.5 19:20:37 34° SSW 19:22:31 86° W 19:27:02 10° N
Okean 1-7 3.8 19:18:52 10° NNW 19:23:01 47° W 19:24:59 27° SSW
Cosmos 44 Rocket 4.3 19:18:50 10° NNW 19:23:30 39° NE 19:25:33 27° E
Cosmos 1437 Rocket 4.3 19:27:01 10° NNW 19:30:21 29° W 19:31:55 21° SW
Cosmos 2333 Rocket 2.8 19:25:40 10° NNW 19:31:16 48° NE 19:33:20 34° ESE
Cosmos 1271 Rocket 4.3 19:31:23 10° NNE 19:34:16 23° ENE 19:34:16 23° ENE
FALCON 9 DEB 4.5 19:31:52 10° WNW 19:35:10 38° N 19:36:21 28° NE
Cosmos 1674 Rocket 4.2 19:32:31 10° N 19:36:37 39° ENE 19:36:49 38° E
Cosmos 1066 Rocket 4.4 19:32:34 10° N 19:38:10 57° ENE 19:39:35 44° ESE
SPOT 5 2.9 19:38:25 45° SSW 19:39:32 61° W 19:43:57 10° NNW
Meteor 1-5 Rocket 4.3 19:36:35 27° SSW 19:39:59 84° WNW 19:45:55 10° N
Cosmos 1486 Rocket 4.4 19:41:49 41° ESE 19:41:49 41° ESE 19:46:37 10° NE
Meteor 1-11 Rocket 3.7 19:49:18 44° S 19:51:15 83° E 19:57:05 10° NNE
Tsikada Rocket 4.0 19:45:41 10° N 19:52:02 73° E 19:53:56 47° SSE
Cosmos 1733 Rocket 3.0 19:52:37 65° E 19:52:37 65° E 19:56:59 10° NNE
USA 267 3.1 19:47:28 10° NE 19:54:03 87° SE 20:00:37 10° SW
Cosmos 1356 4.0 19:56:57 54° NNW 19:56:57 54° NNW 19:59:46 10° N
Cosmos 2100 Rocket 4.4 19:52:15 21° SSW 19:56:25 58° WNW 20:02:30 10° N
Cosmos 968 Rocket 3.8 19:57:26 47° E 19:57:26 47° E 20:02:06 10° NNE
ERBS 3.6 19:54:31 10° NW 19:57:19 37° N 19:57:19 37° N
Cosmos 2173 Rocket 4.4 19:56:36 22° SSW 20:00:32 58° WNW 20:06:33 10° N
Lacrosse 4 Rocket 1.3 20:01:22 81° NE 20:01:22 81° NE 20:05:23 10° NNE
Cosmos 2219 Rocket 2.3 19:55:43 10° NNW 20:01:25 68° ENE 20:02:41 52° ESE
ALOS 2 4.2 20:02:13 23° ENE 20:02:26 23° ENE 20:05:54 10° NNE
SL-16 R/B 4.0 19:59:41 10° NW 20:03:58 22° W 20:06:27 17° SW
SL-4 R/B 2.4 20:04:17 10° WNW 20:07:25 53° NW 20:07:25 53° NW
BREEZE-M DEB (TANK) 3.5 20:04:31 10° WNW 20:08:21 86° SSW 20:23:00 10° ESE
Cosmos 1725 Rocket 4.0 20:10:38 42° SSW 20:12:57 81° W 20:19:20 10° N
Meteor 1-23 Rocket 4.2 20:07:53 10° NNW 20:13:45 82° W 20:14:59 57° S
Cosmos 2322 3.7 20:08:54 10° NNW 20:14:33 72° WSW 20:15:30 59° S
Cosmos 1242 Rocket 3.5 20:13:58 10° NNW 20:16:53 46° NW 20:16:53 46° NW
Cosmos 1833 4.4 20:16:17 31° SW 20:19:03 69° WNW 20:24:45 10° NNE
Spot 4 3.9 20:19:11 61° E 20:19:22 62° ENE 20:24:09 10° N
Cosmos 2016 Rocket 4.4 20:17:44 32° SW 20:20:44 61° WNW 20:27:05 10° N
Cosmos 2322 Rocket 4.0 20:17:10 10° NW 20:21:14 20° W 20:23:15 17° SW
Cosmos 836 Rocket 4.3 20:16:18 10° NNW 20:21:32 81° WSW 20:21:57 74° SSW
Cosmos 1908 Rocket 4.2 20:27:40 47° NE 20:27:40 47° NE 20:31:06 10° NNE
Cosmos 1536 3.7 20:27:23 44° WNW 20:27:23 44° WNW 20:31:12 10° N
Cosmos 1378 Rocket 3.6 20:23:39 10° NNW 20:27:49 75° NW 20:27:49 75° NW
Terra 3.1 20:27:56 29° WSW 20:28:46 31° W 20:33:00 10° NNW
Cosmos 2333 4.5 20:23:46 10° NW 20:29:25 56° WSW 20:30:11 52° SW
USA 234 3.3 20:29:00 52° S 20:30:11 60° SW 20:36:39 10° WNW
Cosmos 2360 Rocket 3.4 20:25:51 10° NW 20:30:44 30° WSW 20:31:48 28° SW
MOS 1-B Rocket 3.7 20:26:06 10° NNE 20:31:44 86° ESE 20:32:40 64° S
SL-16 R/B 4.1 20:28:26 10° N 20:32:55 23° NE 20:35:50 16° E
ATLAS 3B R/B 3.1 20:29:01 10° WSW 20:35:30 58° NW 20:42:07 10° NE
Cosmos 1666 4.4 20:37:36 26° WNW 20:37:49 26° WNW 20:41:02 10° NNW
COSMOS 2487 4.3 20:39:02 29° NW 20:39:02 29° NW 20:41:43 10° N
Cosmos 1354 Rocket 4.0 20:43:36 67° E 20:43:36 67° E 20:48:38 10° NNE
Cosmos 2297 Rocket 3.5 20:50:24 27° E 20:50:24 27° E 20:54:02 10° NE
Meteor 1-21 4.3 20:44:25 10° N 20:50:12 65° ENE 20:50:40 63° ESE
Cosmos 1975 Rocket 3.6 20:46:22 10° N 20:50:09 53° NE 20:50:09 53° NE
Cosmos 2233 Rocket 4.2 20:49:34 48° SW 20:51:14 66° WNW 20:57:33 10° N
Meteor 2-9 Rocket 4.3 20:53:15 60° E 20:53:15 60° E 20:58:57 10° NNE
Thor Agena Rocket 3.4 20:49:23 10° NNE 20:54:28 87° ENE 20:54:28 87° ENE
Cosmos 1980 3.7 20:48:54 10° NNW 20:54:35 68° ENE 20:55:09 63° E
Timation 2 Rocket 4.1 20:54:54 53° ESE 20:54:54 53° ESE 21:00:27 10° NE
COSMOS 2428 3.0 20:52:02 10° NW 20:57:38 55° WSW 20:57:48 54° WSW
Cosmos 1975 3.9 21:00:29 42° NNE 21:00:29 42° NNE 21:03:15 10° NNE
Cosmos 1743 4.0 21:00:17 40° NW 21:00:17 40° NW 21:03:12 10° N
Okean 2 4.2 20:55:17 10° N 20:58:24 50° NNW 20:58:24 50° NNW
Cosmos 1464 Rocket 4.0 21:01:30 62° ESE 21:01:58 64° E 21:08:04 10° NNE
Cosmos 2237 Rocket 2.2 20:56:42 10° NNW 21:02:22 72° ENE 21:02:46 69° E
Cosmos 2219 3.9 21:04:38 39° E 21:04:38 39° E 21:09:00 10° NE
Cosmos 44 Rocket 4.3 21:00:23 10° NW 21:04:15 39° W 21:04:15 39° W
Cosmos 1025 Rocket 4.4 21:02:29 10° N 21:05:39 31° NE 21:05:39 31° NE
NOSS 0 Rocket 3.8 21:01:06 10° NNW 21:07:21 76° WSW 21:07:51 71° SSW
SJ 16-02 4.0 21:10:39 10° ENE 21:10:39 10° ENE 21:10:52 10° ENE
Nadezhda 4 Rocket 4.1 21:03:24 10° N 21:09:38 60° ENE 21:10:23 55° ESE
Okean 2 Rocket 4.3 21:16:22 35° ENE 21:16:22 35° ENE 21:19:31 10° NNE
Cosmos 2333 Rocket 3.2 21:10:16 10° NW 21:15:19 33° WSW 21:15:19 33° WSW
ATLAS 5 CENTAUR R/B 4.1 21:13:20 10° WNW 21:14:58 23° W 21:14:58 23° W
Geosat 4.4 21:18:02 52° W 21:18:02 52° W 21:22:24 10° NW
Cosmos 1503 Rocket 4.4 21:17:56 55° W 21:18:32 58° WNW 21:23:51 10° NNE
Cosmos 1513 Rocket 4.4 21:22:30 72° S 21:23:16 89° WNW 21:29:44 10° N
DNEPR-1 R/B 4.0 21:24:51 10° NW 21:30:25 79° NW 21:30:25 79° NW
Cosmos 1092 Rocket 4.3 21:25:11 10° N 21:31:18 55° ENE 21:32:06 51° ESE
Cosmos 2034 Rocket 3.8 21:34:42 74° SSE 21:35:14 80° E 21:41:36 10° N
Cosmos 1072 Rocket 4.4 21:35:55 64° WSW 21:36:34 69° WNW 21:42:41 10° N
Sich 1 Rocket 4.3 21:37:44 52° N 21:37:44 52° N 21:41:09 10° N
USA 267 4.1 21:30:34 10° ENE 21:36:49 49° NNW 21:43:03 10° W
Cosmos 773 Rocket 4.4 21:33:13 10° NNW 21:37:32 52° WNW 21:37:32 52° WNW
ALOS 2 3.8 21:39:37 37° WNW 21:39:37 37° WNW 21:42:45 10° NNW
Cosmos 2227 Rocket 2.4 21:40:11 57° E 21:40:11 57° E 21:45:16 10° NE
Helios 1A 3.8 21:41:31 49° N 21:41:31 49° N 21:44:41 10° NNW
Lacrosse 4 Rocket 4.1 21:37:41 10° WNW 21:40:27 17° NW 21:43:11 10° N
Cosmos 2219 Rocket 3.8 21:40:36 10° NW 21:44:23 22° W 21:44:23 22° W
Meteor 1-12 Rocket 4.2 21:45:51 76° SE 21:46:05 78° E 21:52:08 10° NNE
Cosmos 1707 4.3 21:44:14 10° NNW 21:46:37 35° NNW 21:46:37 35° NNW
Cosmos 2151 Rocket 4.4 21:49:25 46° NE 21:49:25 46° NE 21:52:41 10° NNE
Cosmos 1536 Rocket 4.3 21:49:15 10° N 21:52:31 50° N 21:52:31 50° N
Resurs 1-4 Rocket 4.3 21:51:30 10° ENE 21:53:48 13° E 21:54:28 12° E
Cosmos 1538 Rocket 4.3 21:50:53 10° NNW 21:55:15 56° WNW 21:55:15 56° WNW
Cosmos 1607 3.8 21:56:27 10° NW 22:02:55 80° SW 22:03:22 75° S
Cosmos 1375 Rocket 4.4 22:03:30 69° SSE 22:03:55 72° ESE 22:10:31 10° NE
USA 229 DEB 4.4 22:05:51 35° ESE 22:05:51 35° ESE 22:11:45 10° NE
USA 229 4.4 22:05:59 35° ESE 22:05:59 35° ESE 22:11:50 10° NE
Cosmos 158 Rocket 4.3 22:01:09 10° NNW 22:06:31 62° ENE 22:06:53 60° E
Cosmos 2082 4.0 22:06:55 54° E 22:06:55 54° E 22:12:02 10° NE
Cosmos 2195 Rocket 4.3 22:04:31 10° N 22:10:54 90° WNW 22:11:35 73° S
Cosmos 2344 4.4 22:02:30 10° NW 22:11:59 69° SW 22:17:18 40° SSE
SL-16 R/B 3.8 22:10:36 21° ESE 22:13:55 35° ENE 22:19:27 10° N
Cosmos 2263 Rocket 4.0 22:17:00 18° ESE 22:17:10 18° E 22:20:51 10° ENE
SL-16 R/B 2.1 22:12:02 10° NNW 22:17:41 82° W 22:17:41 82° W
PSLV R/B 4.0 22:13:09 10° NNE 22:17:19 68° NNE 22:17:19 68° NNE
Helios 1B rocket 3.6 22:15:07 10° NNE 22:18:00 40° NE 22:18:00 40° NE
Cosmos 2112 Rocket 4.1 22:15:16 10° NNW 22:20:29 67° ENE 22:20:40 66° ENE
CZ-4 R/B 4.0 22:15:59 10° NNE 22:20:42 75° NE 22:20:42 75° NE
Cosmos 2026 Rocket 3.8 22:16:45 10° N 22:22:54 86° W 22:23:28 75° S
Cosmos 2279 Rocket 4.2 22:24:45 52° ESE 22:25:37 56° E 22:31:42 10° NNE
Cosmos 1898 Rocket 4.2 22:27:31 43° E 22:27:31 43° E 22:32:10 10° NE
Cosmos 2297 Rocket 2.6 22:32:12 48° W 22:33:01 52° NW 22:38:35 10° NNE
Cosmos 1680 Rocket 3.4 22:30:09 10° NNW 22:35:05 77° NW 22:35:05 77° NW
Cosmos 724 4.4 22:30:40 10° NW 22:36:41 74° NE 22:38:30 47° ESE
Cosmos 1634 Rocket 3.9 22:41:33 65° SW 22:42:20 73° W 22:48:34 10° N
Cosmos 2237 Rocket 3.9 22:41:48 10° NW 22:44:34 19° W 22:44:34 19° W
SL-19 R/B 4.4 22:40:49 10° NNE 22:46:32 58° ESE 22:47:06 55° SE
SJ 16-02 1.7 22:47:38 62° N 22:47:38 62° N 22:51:24 10° NNE
Cosmos 2219 4.2 22:46:31 32° W 22:47:57 37° NW 22:53:11 10° NNE
Okean 1 Rocket 3.5 22:50:07 55° NNW 22:50:07 55° NNW 22:53:47 10° N
Meteor 1-15 Rocket 4.3 22:55:36 57° W 22:56:02 59° WNW 23:01:34 10° N
Meteor 1-24 Rocket 3.4 22:51:23 10° NNW 22:56:49 89° W 22:57:07 80° S
Cosmos 1603 4.0 22:52:44 10° NNW 22:58:28 64° ENE 23:00:43 36° SE
Cosmos 2142 Rocket 4.5 22:59:23 60° SW 23:00:31 73° W 23:06:57 10° N
IRAS Rocket 4.5 22:59:18 44° SE 23:00:58 65° ENE 23:06:33 10° NNW
ATLAS CENTAUR R/B 3.6 23:04:06 15° E 23:04:06 15° E 23:05:43 10° ENE
CZ-2D R/B 2.7 22:58:44 10° NNE 23:04:03 48° E 23:05:05 43° SE
NOSS 2-3 (E) 3.9 23:13:47 59° ESE 23:13:47 59° ESE 23:18:30 10° NE
Cosmos 1455 Rocket 3.1 23:15:14 71° E 23:15:14 71° E 23:19:39 10° NNE
Okean 1-7 Rocket 3.5 23:10:43 10° N 23:15:00 82° NNE 23:15:00 82° NNE
Cosmos 858 Rocket 4.4 23:14:41 71° SSE 23:15:12 79° ESE 23:20:29 10° NNE
Cosmos 2266 Rocket 4.0 23:09:04 10° N 23:15:26 80° E 23:17:25 46° SSE
Cosmos 1943 3.3 23:10:24 10° NNW 23:16:02 72° ENE 23:18:28 35° SE
NOSS 3-1 (C) 3.3 23:16:43 59° WSW 23:17:54 81° NW 23:24:26 10° NE
USA 267 4.4 23:13:03 10° ENE 23:19:08 43° N 23:25:14 10° WNW
Cosmos 1626 3.6 23:16:27 10° NNW 23:18:35 29° NW 23:18:35 29° NW
Cosmos 1733 4.4 23:24:08 35° NW 23:24:08 35° NW 23:26:58 10° N
MOZ.5/SAFIR/RUBIN 5/SL-8 3.8 23:23:32 64° W 23:23:32 64° W 23:28:04 10° NNW
Cosmos 2227 Rocket 3.6 23:22:00 23° W 23:24:07 29° NW 23:29:03 10° NNE
Cosmos 1340 Rocket 3.0 23:25:32 66° NE 23:25:32 66° NE 23:29:06 10° NNE
NPP 3.9 23:19:51 10° NNE 23:25:12 60° ESE 23:26:29 47° SSE
Cosmos 1461 4.1 23:24:34 35° WNW 23:25:18 37° NW 23:29:37 10° NNE
Cosmos 1892 Rocket 4.0 23:24:04 10° NNW 23:27:50 49° WNW 23:27:50 49° WNW
Cosmos 1758 3.5 23:29:16 68° ENE 23:29:16 68° ENE 23:33:04 10° NNE
Exosat Rocket 4.3 23:27:02 42° S 23:29:45 74° ESE 23:35:40 10° NNE
Cosmos 2098 Rocket 3.9 23:24:16 10° N 23:29:58 81° W 23:32:03 46° S
Timation 1 Rocket 4.3 23:30:45 55° SW 23:32:09 83° WNW 23:38:10 10° NNE
Resurs 1-4 Rocket 2.0 23:29:08 10° NNE 23:34:26 84° ESE 23:35:32 58° S
Meteor 1-22 Rocket 4.3 23:34:56 50° WSW 23:35:42 55° WNW 23:41:01 10° N
UNK 3.6 23:35:51 69° WSW 23:36:01 70° WSW 23:40:42 10° NNW
NOSS 2-3 (D) 3.5 23:37:32 76° SSW 23:37:53 86° SE 23:43:00 10° NE
SL-24 R/B 4.4 23:37:19 59° S 23:38:20 86° W 23:43:45 10° N
Cosmos 1470 2.8 23:39:13 70° NW 23:39:13 70° NW 23:42:57 10° N
COBE Rocket 3.8 23:41:55 46° SSE 23:43:15 74° ENE 23:47:55 10° N
Cosmos 1953 2.8 23:43:41 48° ESE 23:44:12 51° E 23:48:10 10° NNE
Cosmos 2292 Rocket 4.4 23:38:08 10° NNW 23:44:55 56° W 23:46:04 48° SW
Cosmos 372 Rocket 4.1 23:44:04 51° S 23:45:19 70° ESE 23:50:34 10° NNE
Atlas Centaur 2 4.5 23:51:56 11° SSE 23:51:56 11° SSE 23:52:44 10° SE
Cosmos 1937 Rocket 3.8 23:49:29 45° WSW 23:50:42 56° WNW 23:55:57 10° NNE
Cosmos 2227 4.2 23:49:19 49° SW 23:50:59 83° WNW 23:56:47 10° NNE
Helios 1B rocket 4.4 23:51:20 10° NNW 23:54:02 17° WNW 23:54:18 17° WNW
CZ-4B R/B 3.5 23:49:35 10° NNE 23:54:19 64° ESE 23:55:44 43° SSE
IKONOS-2 4.5 23:54:24 61° WSW 23:54:25 61° WSW 23:58:38 10° NNW
